TimeCDT,TemperatureF,Dew PointF,Humidity,Sea Level PressureIn,VisibilityMPH,Wind Direction,Wind SpeedMPH,Gust SpeedMPH,PrecipitationIn,Events,Conditions,WindDirDegrees,DateUTC
12:15 AM,77.0,69.8,78,30.04,10.0,SE,4.6,-,N/A,,Clear,140,2013-06-25 05:15:00
12:35 AM,75.2,69.8,83,30.04,10.0,SE,3.5,-,N/A,,Clear,140,2013-06-25 05:35:00
12:55 AM,75.2,69.8,83,30.04,10.0,SE,3.5,-,N/A,,Clear,130,2013-06-25 05:55:00
1:15 AM,75.2,68.0,78,30.04,10.0,SE,4.6,-,N/A,,Clear,130,2013-06-25 06:15:00
1:35 AM,75.2,68.0,78,30.04,10.0,SE,5.8,-,N/A,,Clear,130,2013-06-25 06:35:00
1:55 AM,75.2,68.0,78,30.04,10.0,SSE,5.8,-,N/A,,Clear,150,2013-06-25 06:55:00
2:15 AM,75.2,68.0,78,30.03,9.0,SSE,8.1,-,N/A,,Clear,160,2013-06-25 07:15:00
2:35 AM,75.2,68.0,78,30.03,9.0,SSE,6.9,-,N/A,,Clear,150,2013-06-25 07:35:00
2:55 AM,73.4,68.0,83,30.03,9.0,South,4.6,-,N/A,,Clear,170,2013-06-25 07:55:00
3:15 AM,73.4,68.0,83,30.03,9.0,South,4.6,-,N/A,,Clear,170,2013-06-25 08:15:00
3:35 AM,73.4,69.8,88,30.03,10.0,South,3.5,-,N/A,,Clear,180,2013-06-25 08:35:00
3:55 AM,73.4,69.8,88,30.02,9.0,South,4.6,-,N/A,,Clear,170,2013-06-25 08:55:00
4:15 AM,73.4,69.8,88,30.02,8.0,South,5.8,-,N/A,,Clear,180,2013-06-25 09:15:00
4:35 AM,75.2,69.8,83,30.03,9.0,South,4.6,-,N/A,,Clear,170,2013-06-25 09:35:00
4:55 AM,73.4,69.8,88,30.02,9.0,South,5.8,-,N/A,,Clear,180,2013-06-25 09:55:00
5:15 AM,73.4,69.8,88,30.02,8.0,South,4.6,-,N/A,,Clear,170,2013-06-25 10:15:00
5:35 AM,75.2,69.8,83,30.03,8.0,South,4.6,-,N/A,,Clear,190,2013-06-25 10:35:00
5:55 AM,73.4,69.8,88,30.04,7.0,South,3.5,-,N/A,,Clear,180,2013-06-25 10:55:00
6:15 AM,73.4,69.8,88,30.04,5.0,South,3.5,-,N/A,,Clear,180,2013-06-25 11:15:00
6:35 AM,75.2,71.6,89,30.04,5.0,South,3.5,-,N/A,,Clear,170,2013-06-25 11:35:00
6:55 AM,75.2,71.6,89,30.05,5.0,Calm,Calm,-,N/A,,Haze,0,2013-06-25 11:55:00
7:15 AM,77.0,71.6,83,30.05,6.0,South,3.5,-,N/A,,Haze,180,2013-06-25 12:15:00
7:35 AM,77.0,71.6,83,30.05,6.0,South,5.8,-,N/A,,Haze,180,2013-06-25 12:35:00
7:55 AM,78.8,71.6,78,30.06,6.0,SSW,8.1,-,N/A,,Haze,200,2013-06-25 12:55:00
8:15 AM,78.8,71.6,78,30.05,7.0,South,8.1,-,N/A,,Partly Cloudy,190,2013-06-25 13:15:00
8:35 AM,80.6,71.6,74,30.06,6.0,SSW,8.1,-,N/A,,Haze,200,2013-06-25 13:35:00
8:55 AM,82.4,71.6,70,30.06,7.0,SSW,8.1,-,N/A,,Mostly Cloudy,210,2013-06-25 13:55:00
9:15 AM,82.4,71.6,70,30.06,7.0,SW,9.2,-,N/A,,Mostly Cloudy,220,2013-06-25 14:15:00
9:35 AM,84.2,71.6,66,30.06,8.0,SW,11.5,19.6,N/A,,Mostly Cloudy,220,2013-06-25 14:35:00
9:55 AM,84.2,71.6,66,30.07,7.0,SW,9.2,-,N/A,,Mostly Cloudy,220,2013-06-25 14:55:00
10:15 AM,84.2,71.6,66,30.06,7.0,SW,9.2,-,N/A,,Scattered Clouds,220,2013-06-25 15:15:00
10:35 AM,86.0,71.6,62,30.05,7.0,SW,6.9,18.4,N/A,,Scattered Clouds,220,2013-06-25 15:35:00
10:55 AM,87.8,71.6,58,30.05,8.0,SW,12.7,-,N/A,,Partly Cloudy,220,2013-06-25 15:55:00
11:15 AM,87.8,69.8,55,30.05,9.0,SSW,10.4,-,N/A,,Clear,210,2013-06-25 16:15:00
11:35 AM,87.8,71.6,58,30.05,8.0,WSW,10.4,-,N/A,,Partly Cloudy,240,2013-06-25 16:35:00
11:55 AM,87.8,71.6,58,30.04,8.0,WSW,8.1,-,N/A,,Mostly Cloudy,240,2013-06-25 16:55:00
12:15 PM,89.6,69.8,52,30.03,10.0,SSW,11.5,17.3,N/A,,Scattered Clouds,210,2013-06-25 17:15:00
12:35 PM,91.4,68.0,46,30.03,9.0,SW,11.5,17.3,N/A,,Partly Cloudy,220,2013-06-25 17:35:00
12:55 PM,91.4,68.0,46,30.03,9.0,SSW,9.2,-,N/A,,Partly Cloudy,210,2013-06-25 17:55:00
1:15 PM,91.4,68.0,46,30.03,9.0,SSW,12.7,16.1,N/A,,Partly Cloudy,210,2013-06-25 18:15:00
1:35 PM,93.2,68.0,44,30.02,9.0,SSW,8.1,-,N/A,,Clear,200,2013-06-25 18:35:00
1:55 PM,91.4,68.0,46,30.02,9.0,SSW,5.8,-,N/A,,Scattered Clouds,210,2013-06-25 18:55:00
2:15 PM,89.6,71.6,55,30.02,8.0,West,5.8,-,N/A,,Mostly Cloudy,260,2013-06-25 19:15:00
2:35 PM,86.0,73.4,66,30.02,5.0,SSW,4.6,-,0.01,Rain,Rain,210,2013-06-25 19:35:00
2:55 PM,91.4,71.6,52,30.01,9.0,WSW,5.8,-,0.01,,Partly Cloudy,240,2013-06-25 19:55:00
3:15 PM,91.4,69.8,49,30.00,9.0,South,6.9,-,N/A,,Scattered Clouds,170,2013-06-25 20:15:00
3:35 PM,93.2,69.8,46,29.99,9.0,SSE,8.1,-,N/A,,Partly Cloudy,160,2013-06-25 20:35:00
3:55 PM,93.2,69.8,46,29.99,9.0,SSE,10.4,-,N/A,,Scattered Clouds,160,2013-06-25 20:55:00
4:15 PM,91.4,71.6,52,29.98,9.0,SSE,6.9,-,N/A,,Scattered Clouds,160,2013-06-25 21:15:00
4:35 PM,91.4,71.6,52,29.97,9.0,South,6.9,-,N/A,,Mostly Cloudy,170,2013-06-25 21:35:00
4:55 PM,93.2,69.8,46,29.95,9.0,South,12.7,17.3,N/A,,Partly Cloudy,170,2013-06-25 21:55:00
5:15 PM,91.4,71.6,52,29.95,8.0,SSE,9.2,-,N/A,,Partly Cloudy,160,2013-06-25 22:15:00
5:35 PM,91.4,71.6,52,29.94,9.0,SSE,9.2,-,N/A,,Clear,150,2013-06-25 22:35:00
5:55 PM,91.4,71.6,52,29.94,9.0,South,8.1,-,N/A,,Clear,170,2013-06-25 22:55:00
6:15 PM,91.4,69.8,49,29.93,10.0,South,9.2,-,N/A,,Clear,180,2013-06-25 23:15:00
6:35 PM,91.4,69.8,49,29.93,9.0,SSE,6.9,-,N/A,,Clear,160,2013-06-25 23:35:00
6:55 PM,89.6,71.6,55,29.93,9.0,SSE,6.9,-,N/A,,Clear,160,2013-06-25 23:55:00
7:15 PM,86.0,71.6,62,29.93,10.0,South,5.8,-,N/A,,Clear,170,2013-06-26 00:15:00
7:35 PM,86.0,71.6,62,29.93,9.0,SSE,5.8,-,N/A,,Clear,160,2013-06-26 00:35:00
7:55 PM,84.2,71.6,66,29.93,9.0,South,3.5,-,N/A,,Clear,170,2013-06-26 00:55:00
8:15 PM,82.4,71.6,70,29.94,8.0,South,4.6,-,N/A,,Clear,170,2013-06-26 01:15:00
8:35 PM,82.4,71.6,70,29.93,9.0,South,4.6,-,N/A,,Clear,170,2013-06-26 01:35:00
8:55 PM,80.6,71.6,74,29.93,10.0,SSE,4.6,-,N/A,,Clear,160,2013-06-26 01:55:00
9:15 PM,80.6,69.8,70,29.93,10.0,SSE,5.8,-,N/A,,Clear,160,2013-06-26 02:15:00
9:35 PM,80.6,69.8,70,29.93,10.0,SSE,4.6,-,N/A,,Clear,160,2013-06-26 02:35:00
9:55 PM,78.8,69.8,74,29.93,10.0,SSE,4.6,-,N/A,,Clear,150,2013-06-26 02:55:00
10:15 PM,78.8,69.8,74,29.93,10.0,SSE,3.5,-,N/A,,Clear,150,2013-06-26 03:15:00
10:35 PM,77.0,69.8,78,29.93,10.0,Calm,Calm,-,N/A,,Clear,0,2013-06-26 03:35:00
10:55 PM,77.0,69.8,78,29.93,10.0,South,3.5,-,N/A,,Clear,170,2013-06-26 03:55:00
11:15 PM,77.0,69.8,78,29.93,10.0,SSE,4.6,-,N/A,,Clear,160,2013-06-26 04:15:00
11:35 PM,77.0,69.8,78,29.93,10.0,SSE,4.6,-,N/A,,Clear,160,2013-06-26 04:35:00
11:55 PM,77.0,69.8,78,29.94,10.0,South,4.6,-,N/A,,Clear,170,2013-06-26 04:55:00